Location: Bremen
(53.0833°N, 8.8000°E)
Time: 13:52:41
(UTC+02:00)

ISS - Pass Details

Date: 03 May 2025
Orbit: 416 x 419 km, 51.6° (Epoch: 14 May)

Event Time Altitude Azimuth Distance (km) Brightness Sun altitude
Exits shadow 02:14:54 21° 102° (ESE) 994 -1.9 -20.3°
Drops below altitude 10° 02:16:18 10° 89° (E) 1,497 -0.8 -20.2°
Sets 02:18:29 0° 81° (E) 2,363 0.4 -20.1°
